| time (UTC) | temp F | wind direction | speed MPH | gust MPH | rain 1hr in | rain 24hr in | rain mn in | humidity % | barometer mb |
| 20260502223431 | 58 | 0 | 1.0 | 12.0 | 0.00 | 0.00 | 0.00 | 55 | 977.1 |
| 20260502220431 | 58 | 0 | 1.0 | 11.0 | 0.00 | 0.00 | 0.00 | 52 | 977.5 |
| 20260502214804 | 59 | 0 | 0.0 | 12.0 | 0.00 | 0.00 | 0.00 | 52 | 977.5 |
| 20260502210431 | 60 | 0 | 0.0 | 11.0 | 0.00 | 0.00 | 0.00 | 52 | 977.5 |
| 20260502203430 | 60 | 190 | 0.0 | 11.0 | 0.00 | 0.00 | 0.00 | 53 | 977.3 |
| 20260502200431 | 61 | 0 | 1.0 | 15.0 | 0.00 | 0.00 | 0.00 | 53 | 977.1 |
| 20260502193430 | 62 | 0 | 0.0 | 15.0 | 0.00 | 0.00 | 0.00 | 55 | 977.0 |
| 20260502190424 | 62 | 0 | 0.0 | 8.0 | 0.00 | 0.00 | 0.00 | 54 | 976.8 |
| 20260502183424 | 63 | 0 | 0.0 | 8.0 | 0.00 | 0.00 | 0.00 | 52 | 976.9 |
| 20260502180422 | 64 | 0 | 0.0 | 6.0 | 0.00 | 0.00 | 0.00 | 48 | 976.9 |
| 20260502170417 | 67 | 0 | 0.0 | 13.0 | 0.00 | 0.00 | 0.00 | 43 | 977.0 |
| 20260502163416 | 68 | 0 | 2.0 | 17.0 | 0.00 | 0.00 | 0.00 | 42 | 977.1 |
| 20260502160416 | 69 | 0 | 2.0 | 20.0 | 0.00 | 0.00 | 0.00 | 44 | 977.4 |
| 20260502150418 | 72 | 0 | 2.0 | 22.0 | 0.00 | 0.00 | 0.00 | 42 | 977.9 |
| 20260502130415 | 74 | 155 | 2.0 | 19.0 | 0.00 | 0.00 | 0.00 | 45 | 979.2 |
| 20260502123409 | 74 | 198 | 2.0 | 18.0 | 0.00 | 0.00 | 0.00 | 43 | 979.4 |
| 20260502120410 | 73 | 0 | 3.0 | 23.0 | 0.00 | 0.00 | 0.00 | 40 | 979.6 |
| 20260502113412 | 71 | 0 | 3.0 | 21.0 | 0.00 | 0.00 | 0.00 | 43 | 980.0 |
| 20260502110411 | 71 | 163 | 4.0 | 23.0 | 0.00 | 0.00 | 0.00 | 41 | 980.3 |
| 20260502104752 | 71 | 0 | 4.0 | 23.0 | 0.00 | 0.00 | 0.00 | 42 | 980.5 |
| 20260502100411 | 70 | 0 | 3.0 | 20.0 | 0.00 | 0.00 | 0.00 | 46 | 980.9 |
| 20260502090410 | 67 | 0 | 3.0 | 19.0 | 0.00 | 0.00 | 0.00 | 55 | 981.2 |
| 20260502070402 | 60 | 201 | 2.0 | 14.0 | 0.00 | 0.00 | 0.00 | 69 | 981.7 |
| 20260502063404 | 59 | 0 | 0.0 | 8.0 | 0.00 | 0.00 | 0.00 | 67 | 981.8 |
| 20260502060401 | 58 | 190 | 0.0 | 6.0 | 0.00 | 0.00 | 0.00 | 67 | 982.0 |
| 20260502053355 | 56 | 164 | 0.0 | 8.0 | 0.00 | 0.00 | 0.00 | 69 | 981.9 |
| 20260502050357 | 56 | 163 | 0.0 | 6.0 | 0.00 | 0.00 | 0.00 | 68 | 981.8 |
| 20260502043357 | 56 | 0 | 0.0 | 9.0 | 0.00 | 0.00 | 0.00 | 68 | 981.8 |
| 20260502040349 | 56 | 0 | 0.0 | 9.0 | 0.00 | 0.00 | 0.00 | 67 | 981.8 |
| 20260502034737 | 56 | 159 | 0.0 | 12.0 | 0.00 | 0.00 | 0.00 | 64 | 981.8 |
| 20260502031739 | 56 | 0 | 1.0 | 18.0 | 0.00 | 0.00 | 0.00 | 65 | 981.8 |
| 20260502030119 | 56 | 182 | 1.0 | 13.0 | 0.00 | 0.00 | 0.00 | 66 | 981.8 |
| 20260502020348 | 56 | 219 | 1.0 | 14.0 | 0.00 | 0.00 | 0.00 | 65 | 981.9 |
| 20260502013343 | 57 | 0 | 1.0 | 14.0 | 0.00 | 0.00 | 0.00 | 63 | 981.9 |
| 20260502010344 | 57 | 197 | 2.0 | 18.0 | 0.00 | 0.00 | 0.00 | 61 | 982.0 |
| 20260502003345 | 57 | 0 | 2.0 | 18.0 | 0.00 | 0.00 | 0.00 | 59 | 982.1 |
| 20260502000342 | 58 | 173 | 2.0 | 15.0 | 0.00 | 0.00 | 0.00 | 58 | 982.5 |
| 20260501233342 | 58 | 0 | 1.0 | 11.0 | 0.00 | 0.00 | 0.00 | 58 | 982.6 |
| 20260501230343 | 59 | 180 | 0.0 | 15.0 | 0.00 | 0.00 | 0.00 | 57 | 982.6 |
| 20260501230111 | 60 | 171 | 1.0 | 15.0 | 0.00 | 0.00 | 0.00 | 59 | 982.6 |